Duncan, OK

4:24 PM CDT on August 24, 2016 (GMT -0500)
Halliburton

Weather History for KDUC - January, 2014

Change the Weather History Date:

Wednesday, January 22, 2014

  Actual Average (KLAW) Record (KLAW)
Temperature  
Mean Temperature 40 °F -  
Max Temperature 53 °F 52 °F 81 °F (1967)
Min Temperature 26 °F 28 °F 5 °F (1959)
Degree Days  
Heating Degree Days 26    
Moisture  
Dew Point 22 °F    
Average Humidity 52    
Maximum Humidity 74    
Minimum Humidity 30    
Precipitation  
Precipitation 0.00 in - - ()
Sea Level Pressure  
Sea Level Pressure 30.12 in    
Wind  
Wind Speed 6 mph (ENE)    
Max Wind Speed 15 mph    
Max Gust Speed 23 mph    
Visibility 10 miles    
Events      
Averages and records for this station are not official NWS values.
T = Trace of Precipitation, MM = Missing Value Source: NWS Daily Summary

Daily Weather History Graph

Daily Weather History Graph

Search for Another Location

Airport or City:

Trip Planner

Search our weather history database for the weather conditions in past years. The results will help you decide how hot, cold, wet, or windy it might be!

Date:

Astronomy

Jan. 22, 2014 Rise Set
Actual Time 7:35 AM CST 5:51 PM CST
Civil Twilight 7:08 AM CST 6:18 PM CST
Nautical Twilight 6:38 AM CST 6:49 PM CST
Astronomical Twilight 6:08 AM CST 7:19 PM CST
Moon No Moon Rise 10:54 AM CST (1/22)
Length of Visible Light 11h 09m
Length of Day
10h 15m
Waning Gibbous, 65% of the Moon is Illuminated
Jan 22
Waning Gibbous
Jan 23
Last Quarter
Jan 30
New
Feb 6
First Quarter
Feb 14
Full

Hourly Weather History & Observations

Time (CST) Temp. Windchill Dew Point Humidity Pressure Visibility Wind Dir Wind Speed Gust Speed Precip Events Conditions
12:15 AM 32.0 °F 25.6 °F 17.6 °F 55% 30.12 in 10.0 mi East 6.9 mph - N/A   Clear
12:35 AM 32.0 °F 24.8 °F 19.4 °F 60% 30.11 in 10.0 mi East 8.1 mph - N/A   Clear
12:55 AM 32.0 °F 24.8 °F 19.4 °F 60% 30.11 in 10.0 mi East 8.1 mph - N/A   Clear
1:15 AM 32.0 °F - 19.4 °F 60% 30.11 in 10.0 mi Calm Calm - N/A   Clear
1:35 AM 32.0 °F - 19.4 °F 60% 30.10 in 10.0 mi Calm Calm - N/A   Clear
1:55 AM 30.2 °F - 17.6 °F 60% 30.10 in 10.0 mi Calm Calm - N/A   Clear
2:15 AM 30.2 °F - 17.6 °F 60% 30.10 in 10.0 mi Calm Calm - N/A   Clear
2:35 AM 28.4 °F - 17.6 °F 64% 30.09 in 10.0 mi Calm Calm - N/A   Clear
2:55 AM 26.6 °F - 17.6 °F 69% 30.09 in 10.0 mi Calm Calm - N/A   Clear
3:15 AM 28.4 °F - 17.6 °F 64% 30.09 in 10.0 mi Calm Calm - N/A   Clear
3:35 AM 26.6 °F - 17.6 °F 69% 30.08 in 10.0 mi Calm Calm - N/A   Clear
3:55 AM 28.4 °F - 17.6 °F 64% 30.08 in 10.0 mi Calm Calm - N/A   Clear
4:15 AM 28.4 °F - 17.6 °F 64% 30.07 in 10.0 mi Calm Calm - N/A   Clear
4:35 AM 28.4 °F - 19.4 °F 69% 30.07 in 10.0 mi Calm Calm - N/A   Clear
4:55 AM 28.4 °F - 19.4 °F 69% 30.07 in 10.0 mi Calm Calm - N/A   Clear
5:15 AM 28.4 °F - 19.4 °F 69% 30.08 in 10.0 mi Calm Calm - N/A   Clear
5:35 AM 28.4 °F - 19.4 °F 69% 30.08 in 10.0 mi Calm Calm - N/A   Clear
5:55 AM 28.4 °F - 19.4 °F 69% 30.09 in 10.0 mi Calm Calm - N/A   Clear
6:15 AM 28.4 °F - 19.4 °F 69% 30.08 in 10.0 mi Calm Calm - N/A   Clear
6:35 AM 28.4 °F - 19.4 °F 69% 30.08 in 10.0 mi Calm Calm - N/A   Clear
6:55 AM 26.6 °F - 19.4 °F 74% 30.10 in 10.0 mi Calm Calm - N/A   Clear
7:15 AM 28.4 °F - 19.4 °F 69% 30.11 in 10.0 mi Calm Calm - N/A   Clear
7:35 AM 26.6 °F - 19.4 °F 74% 30.12 in 10.0 mi Calm Calm - N/A   Clear
7:55 AM 26.6 °F - 19.4 °F 74% 30.12 in 10.0 mi Calm Calm - N/A   Clear
8:15 AM 30.2 °F - 19.4 °F 64% 30.13 in 10.0 mi Calm Calm - N/A   Clear
8:35 AM 30.2 °F 24.3 °F 19.4 °F 64% 30.13 in 10.0 mi NE 5.8 mph - N/A   Clear
8:55 AM 32.0 °F - 21.2 °F 64% 30.13 in 10.0 mi Calm Calm - N/A   Clear
9:15 AM 33.8 °F 27.7 °F 21.2 °F 60% 30.13 in 10.0 mi ENE 6.9 mph - N/A   Clear
9:35 AM 35.6 °F 28.0 °F 21.2 °F 56% 30.14 in 10.0 mi NE 10.4 mph - N/A   Clear
9:55 AM 35.6 °F 28.0 °F 21.2 °F 56% 30.13 in 10.0 mi NE 10.4 mph - N/A   Clear
10:15 AM 39.2 °F 30.8 °F 21.2 °F 49% 30.14 in 10.0 mi ENE 15.0 mph 21.9 mph N/A   Clear
10:35 AM 41.0 °F 33.1 °F 21.2 °F 45% 30.15 in 10.0 mi ENE 15.0 mph - N/A   Clear
10:55 AM 42.8 °F 35.8 °F 21.2 °F 42% 30.15 in 10.0 mi ENE 13.8 mph 18.4 mph N/A   Clear
11:15 AM 42.8 °F 36.2 °F 21.2 °F 42% 30.15 in 10.0 mi ENE 12.7 mph 16.1 mph N/A   Clear
11:35 AM 44.6 °F 37.8 °F 21.2 °F 39% 30.15 in 10.0 mi ENE 15.0 mph 19.6 mph N/A   Clear
11:55 AM 46.4 °F 41.1 °F 23.0 °F 40% 30.15 in 10.0 mi ENE 11.5 mph 18.4 mph N/A   Clear
12:15 PM 50.0 °F - 23.0 °F 35% 30.14 in 10.0 mi NE 13.8 mph 20.7 mph N/A   Clear
12:35 PM 50.0 °F - 23.0 °F 35% 30.13 in 10.0 mi NE 12.7 mph - N/A   Clear
12:55 PM 50.0 °F - 23.0 °F 35% 30.12 in 10.0 mi NE 13.8 mph 19.6 mph N/A   Clear
1:15 PM 50.0 °F - 23.0 °F 35% 30.11 in 10.0 mi ENE 10.4 mph - N/A   Clear
1:35 PM 51.8 °F - 23.0 °F 33% 30.10 in 10.0 mi ENE 12.7 mph - N/A   Clear
1:55 PM 51.8 °F - 24.8 °F 35% 30.09 in 10.0 mi NE 9.2 mph - N/A   Clear
2:15 PM 51.8 °F - 24.8 °F 35% 30.08 in 10.0 mi ENE 13.8 mph 17.3 mph N/A   Clear
2:35 PM 53.6 °F - 23.0 °F 30% 30.07 in 10.0 mi NE 11.5 mph 19.6 mph N/A   Clear
2:55 PM 51.8 °F - 23.0 °F 33% 30.07 in 10.0 mi ENE 11.5 mph 19.6 mph N/A   Clear
3:15 PM 51.8 °F - 23.0 °F 33% 30.07 in 10.0 mi ENE 13.8 mph 17.3 mph N/A   Clear
3:35 PM 51.8 °F - 23.0 °F 33% 30.07 in 10.0 mi ENE 11.5 mph - N/A   Clear
3:55 PM 51.8 °F - 23.0 °F 33% 30.07 in 10.0 mi NE 11.5 mph - N/A   Clear
4:15 PM 50.0 °F - 23.0 °F 35% 30.08 in 10.0 mi ENE 10.4 mph - N/A   Clear
4:35 PM 50.0 °F - 23.0 °F 35% 30.09 in 10.0 mi ENE 12.7 mph 16.1 mph N/A   Clear
4:55 PM 50.0 °F - 23.0 °F 35% 30.09 in 10.0 mi ENE 11.5 mph 17.3 mph N/A   Clear
5:15 PM 50.0 °F - 23.0 °F 35% 30.09 in 10.0 mi ENE 11.5 mph 17.3 mph N/A   Clear
5:35 PM 48.2 °F - 23.0 °F 37% 30.10 in 10.0 mi ENE 9.2 mph - N/A   Clear
5:55 PM 46.4 °F 42.4 °F 23.0 °F 40% 30.10 in 10.0 mi ENE 8.1 mph - N/A   Clear
6:15 PM 46.4 °F 42.4 °F 23.0 °F 40% 30.11 in 10.0 mi East 8.1 mph - N/A   Clear
6:35 PM 44.6 °F 39.7 °F 23.0 °F 43% 30.12 in 10.0 mi ENE 9.2 mph - N/A   Clear
6:55 PM 44.6 °F 41.4 °F 23.0 °F 43% 30.13 in 10.0 mi ENE 5.8 mph - N/A   Clear
7:15 PM 44.6 °F 40.7 °F 26.6 °F 49% 30.14 in 10.0 mi ENE 6.9 mph - N/A   Clear
7:35 PM 44.6 °F 39.7 °F 26.6 °F 49% 30.15 in 10.0 mi ENE 9.2 mph - N/A   Clear
7:55 PM 42.8 °F 38.6 °F 26.6 °F 53% 30.15 in 10.0 mi ENE 6.9 mph - N/A   Clear
8:15 PM 42.8 °F 38.6 °F 26.6 °F 53% 30.16 in 10.0 mi ENE 6.9 mph - N/A   Clear
8:35 PM 42.8 °F 38.0 °F 26.6 °F 53% 30.17 in 10.0 mi ENE 8.1 mph - N/A   Clear
8:55 PM 42.8 °F 38.0 °F 26.6 °F 53% 30.17 in 10.0 mi ENE 8.1 mph - N/A   Clear
9:15 PM 42.8 °F - 26.6 °F 53% 30.19 in 10.0 mi Calm Calm - N/A   Clear
9:35 PM 42.8 °F 38.0 °F 26.6 °F 53% 30.20 in 10.0 mi ENE 8.1 mph - N/A   Clear
9:55 PM 41.0 °F 35.8 °F 26.6 °F 57% 30.20 in 10.0 mi NE 8.1 mph - N/A   Clear
10:15 PM 41.0 °F 35.2 °F 26.6 °F 57% 30.21 in 10.0 mi NE 9.2 mph - N/A   Clear
10:35 PM 41.0 °F 35.8 °F 24.8 °F 53% 30.22 in 10.0 mi NE 8.1 mph - N/A   Clear
10:55 PM 41.0 °F 34.7 °F 24.8 °F 53% 30.23 in 10.0 mi ENE 10.4 mph - N/A   Clear
11:15 PM 39.2 °F 33.6 °F 23.0 °F 52% 30.24 in 10.0 mi ENE 8.1 mph - N/A   Clear
11:35 PM 39.2 °F 33.0 °F 23.0 °F 52% 30.25 in 10.0 mi ENE 9.2 mph - N/A   Clear
11:55 PM 39.2 °F 31.2 °F 23.0 °F 52% 30.25 in 10.0 mi NE 13.8 mph 23.0 mph N/A   Clear